Weather History for Chanute, KS

Change the Weather History Date:

Tuesday, September 10, 2013

  Actual Average Record
Temperature  
Mean Temperature 82 °F 72 °F  
Max Temperature 96 °F 84 °F 103 °F (1936)
Min Temperature 68 °F 61 °F 43 °F (1962)
Degree Days  
Heating Degree Days 0 1  
Month to date heating degree days 0 1  
Since 1 July heating degree days 0 2  
Cooling Degree Days 17 8  
Month to date cooling degree days 136 95  
Year to date cooling degree days 1403 1399  
Growing Degree Days 32 (Base 50)    
Moisture  
Dew Point 63 °F    
Average Humidity 59    
Maximum Humidity 84    
Minimum Humidity 34    
Precipitation  
Precipitation 0.00 in 0.11 in 1.92 in (1922)
Month to date precipitation 0.00 1.11  
Year to date precipitation 34.78 31.60  
Sea Level Pressure  
Sea Level Pressure 30.02 in    
Wind  
Wind Speed 10 mph (South)    
Max Wind Speed 22 mph    
Max Gust Speed 25 mph    
Visibility 10 miles    
Events      
T = Trace of Precipitation, MM = Missing Value Source: NWS Daily Summary

Daily Weather History Graph

Daily Weather History Graph

Search for Another Location

Airport:

Trip Planner

Search our weather history database for the weather conditions in past years. The results will help you decide how hot, cold, wet, or windy it might be!

Date:

Astronomy

Sep. 10, 2013 Rise Set
Actual Time 6:59 AM CDT 7:37 PM CDT
Civil Twilight 6:33 AM CDT 8:03 PM CDT
Nautical Twilight 6:02 AM CDT 8:34 PM CDT
Astronomical Twilight 5:30 AM CDT 9:06 PM CDT
Moon 12:19 PM CDT (9/10) 10:47 PM CDT (9/10)
Length of Visible Light 13h 30m
Length of Day
12h 37m
Waxing Crescent, 28% of the Moon is Illuminated
Sep 10
Waxing Crescent
Sep 12
First Quarter
Sep 19
Full
Sep 26
Last Quarter
Oct 4
New

Hourly Weather History & Observations

Time (CDT) Temp. Heat Index Dew Point Humidity Pressure Visibility Wind Dir Wind Speed Gust Speed Precip Events Conditions
12:52 AM 72.0 °F - 63.0 °F 73% 29.95 in 10.0 mi SE 5.8 mph - N/A   Clear
1:52 AM 70.0 °F - 64.0 °F 81% 29.95 in 10.0 mi SSE 5.8 mph - N/A   Clear
2:52 AM 71.1 °F - 63.0 °F 75% 29.96 in 10.0 mi South 5.8 mph - N/A   Clear
3:52 AM 70.0 °F - 63.0 °F 78% 29.97 in 10.0 mi SSE 6.9 mph - N/A   Clear
4:52 AM 69.1 °F - 63.0 °F 81% 29.98 in 10.0 mi SSE 6.9 mph - N/A   Clear
5:52 AM 69.1 °F - 63.0 °F 81% 29.99 in 10.0 mi South 8.1 mph - N/A   Clear
6:52 AM 69.1 °F - 63.0 °F 81% 30.01 in 10.0 mi South 8.1 mph - N/A   Clear
7:52 AM 73.0 °F - 63.0 °F 71% 30.04 in 10.0 mi South 8.1 mph - N/A   Clear
8:52 AM 80.1 °F 81.5 °F 63.0 °F 56% 30.04 in 10.0 mi South 12.7 mph - N/A   Clear
9:52 AM 84.9 °F 86.1 °F 64.0 °F 49% 30.06 in 10.0 mi SSW 12.7 mph 21.9 mph N/A   Clear
10:52 AM 88.0 °F 88.7 °F 63.0 °F 43% 30.06 in 10.0 mi SW 15.0 mph 20.7 mph N/A   Clear
11:52 AM 91.9 °F 92.9 °F 63.0 °F 38% 30.06 in 10.0 mi SW 16.1 mph 23.0 mph N/A   Clear
12:52 PM 93.0 °F 94.2 °F 63.0 °F 37% 30.05 in 10.0 mi SW 13.8 mph 24.2 mph N/A   Clear
1:52 PM 95.0 °F 96.0 °F 63.0 °F 34% 30.04 in 10.0 mi South 15.0 mph 23.0 mph N/A   Clear
2:52 PM 95.0 °F 96.0 °F 63.0 °F 34% 30.03 in 10.0 mi South 12.7 mph 21.9 mph N/A   Clear
3:52 PM 93.9 °F 94.8 °F 62.1 °F 35% 30.02 in 10.0 mi South 19.6 mph 24.2 mph N/A   Clear
4:52 PM 93.0 °F 94.2 °F 63.0 °F 37% 30.01 in 10.0 mi South 12.7 mph - N/A   Clear
5:52 PM 91.9 °F 91.8 °F 61.0 °F 35% 30.00 in 10.0 mi South 13.8 mph - N/A   Clear
6:52 PM 88.0 °F 87.6 °F 60.1 °F 39% 30.00 in 10.0 mi South 9.2 mph - N/A   Clear
7:52 PM 80.1 °F 81.2 °F 62.1 °F 54% 30.01 in 10.0 mi SSE 5.8 mph - N/A   Clear
8:52 PM 77.0 °F - 62.1 °F 60% 30.03 in 10.0 mi SSE 6.9 mph - N/A   Clear
9:52 PM 75.0 °F - 63.0 °F 66% 30.05 in 10.0 mi SSE 6.9 mph - N/A   Clear
10:52 PM 73.0 °F - 62.1 °F 68% 30.07 in 10.0 mi South 3.5 mph - N/A   Clear
11:52 PM 70.0 °F - 62.1 °F 76% 30.07 in 10.0 mi SSE 4.6 mph - N/A   Clear